QPF
0.00 0.00 0.00 0.00 0.00 0.00 0.00 0.00 0.00 0.00 0.00 0.00 0.00 0.00 0.00 0.00 0.00 0.00 0.00 0.00 0.00 0.00 0.00 0.00 0.00 0.00 0.00 0.00 0.00 0.00 0.00 0.00 0.00 0.00 0.00 0.00 0.00 0.00 0.00 0.00 0.00 0.00 0.00 0.00 0.00 0.00 0.00 0.00 0.00
0.00 0.00 0.00 0.00 0.00 0.00 0.00 0.00 0.00 0.00 0.00 0.00 0.00 0.00 0.00 0.00 0.00 0.00 0.00 0.01 0.01 0.04 0.00 0.00 0.00 0.00 0.00 0.00 0.00 0.00 0.00 0.00 0.00 0.00 0.00 0.00 0.00 0.01 0.00 0.00 0.00 0.00 0.00 0.00 0.00 0.00 0.00 0.00 0.00
0.00 0.00 0.00 0.00 0.00 0.00 0.00 0.00 0.00 0.00 0.00 0.00 0.00 0.00 0.00 0.00 0.00 0.00 0.00 0.01 0.05 0.16 0.03 0.00 0.00 0.00 0.00 0.00 0.00 0.00 0.00 0.00 0.00 0.00 0.00 0.00 0.00 0.00 0.00 0.00 0.00 0.00 0.01 0.01 0.00 0.00 0.00 0.00 0.00
0.00 0.00 0.00 0.00 0.00 0.00 0.00 0.00 0.00 0.00 0.00 0.00 0.00 0.00 0.00 0.00 0.01 0.00 0.00 0.04 0.05 0.09 0.04 0.00 0.00 0.00 0.00 0.00 0.00 0.00 0.00 0.00 0.00 0.00 0.00 0.00 0.00 0.00 0.00 0.00 0.00 0.00 0.00 0.00 0.00 0.00 0.00 0.00 0.00
0.00 0.00 0.00 0.00 0.00 0.00 0.00 0.00 0.00 0.00 0.00 0.00 0.00 0.00 0.00 0.00 0.00 0.00 0.00 0.01 0.02 0.02 0.05 0.00 0.00 0.00 0.00 0.00 0.00 0.00 0.00 0.00 0.00 0.00 0.00 0.00 0.00 0.00 0.00 0.00 0.00 0.00 0.00 0.00 0.00 0.00 0.00 0.00 0.00
0.00 0.00 0.00 0.00 0.00 0.00 0.00 0.00 0.00 0.00 0.00 0.00 0.00 0.00 0.00 0.00 0.00 0.00 0.00 0.00 0.00 0.00 0.00 0.00 0.00 0.00 0.00 0.00 0.00 0.00 0.00 0.00 0.00 0.00 0.00 0.00 0.00 0.00 0.00 0.00 0.00 0.00 0.00 0.00 0.00 0.00 0.00 0.00 0.00
0.00 0.00 0.00 0.00 0.00 0.00 0.00 0.00 0.00 0.00 0.00 0.00 0.00 0.00 0.00 0.00 0.00 0.00 0.00 0.00 0.00 0.00 0.00 0.00 0.00 0.00 0.00 0.00 0.00 0.00 0.00 0.00 0.00 0.00 0.00 0.00 0.00 0.00 0.00 0.00 0.00 0.00 0.00 0.00 0.00 0.00 0.00 0.00 0.00
0.00 0.00 0.00 0.00 0.00 0.00 0.00 0.00 0.00 0.00 0.00 0.00 0.00 0.00 0.00 0.00 0.00 0.00 0.00 0.00 0.00 0.01 0.01 0.00 0.00 0.00 0.00 0.00 0.00 0.00 0.00 0.00 0.00 0.00 0.00 0.00 0.00 0.00 0.00 0.00 0.00 0.00 0.00 0.00 0.00 0.00 0.00 0.00 0.01
0.00 0.00 0.00 0.00 0.00 0.00 0.00 0.00 0.00 0.00 0.00 0.00 0.00 0.00 0.00 0.00 0.00 0.00 0.00 0.00 0.00 0.00 0.00 0.00 0.00 0.00 0.00 0.00 0.00 0.00 0.00 0.00 0.00 0.00 0.00 0.00 0.00 0.00 0.00 0.00 0.00 0.00 0.00 0.00 0.00 0.00 0.00 0.00 0.00
0.00 0.00 0.00 0.00 0.00 0.00 0.00 0.00 0.00 0.00 0.00 0.00 0.00 0.00 0.00 0.00 0.00 0.00 0.00 0.00 0.00 0.00 0.00 0.00 0.00 0.00 0.00 0.00 0.00 0.00 0.00 0.00 0.00 0.00 0.00 0.00 0.00 0.00 0.00 0.00 0.00 0.00 0.00 0.00 0.00 0.00 0.00 0.00 0.00
0.00 0.00 0.00 0.00 0.00 0.00 0.00 0.00 0.00 0.00 0.00 0.00 0.00 0.00 0.00 0.00 0.00 0.00 0.00 0.00 0.00 0.00 0.00 0.00 0.00 0.00 0.00 0.00 0.00 0.00 0.00 0.00 0.00 0.00 0.00 0.00 0.00 0.00 0.00 0.00 0.00 0.00 0.00 0.00 0.00 0.00 0.00 0.00 0.00
0.00 0.00 0.00 0.00 0.00 0.00 0.00 0.00 0.00 0.00 0.00 0.00 0.00 0.00 0.00 0.00 0.00 0.00 0.00 0.00 0.00 0.00 0.00 0.00 0.00 0.00 0.00 0.00 0.00 0.00 0.00 0.00 0.00 0.00 0.00 0.00 0.00 0.00 0.00 0.00 0.00 0.00 0.00 0.00 0.00 0.00 0.00 0.00 0.00
0.00 0.00 0.00 0.00 0.00 0.00 0.00 0.00 0.00 0.00 0.00 0.00 0.00 0.00 0.00 0.00 0.00 0.00 0.00 0.00 0.00 0.00 0.00 0.00 0.00 0.00 0.00 0.00 0.00 0.00 0.00 0.00 0.00 0.00 0.00 0.00 0.00 0.00 0.00 0.00 0.00 0.00 0.00 0.00 0.00 0.00 0.00 0.00 0.00
0.00 0.00 0.00 0.00 0.00 0.00 0.00 0.00 0.00 0.00 0.00 0.00 0.00 0.00 0.00 0.00 0.00 0.00 0.00 0.00 0.00 0.00 0.00 0.00 0.00 0.00 0.00 0.00 0.00 0.00 0.00 0.00 0.00 0.00 0.00 0.00 0.00 0.00 0.00 0.00 0.00 0.00 0.00 0.00 0.00 0.00 0.00 0.00 0.00
0.00 0.00 0.00 0.00 0.00 0.00 0.00 0.00 0.00 0.00 0.00 0.00 0.00 0.00 0.00 0.00 0.00 0.00 0.00 0.00 0.00 0.00 0.00 0.00 0.00 0.00 0.00 0.00 0.00 0.00 0.00 0.00 0.00 0.00 0.00 0.00 0.00 0.00 0.00 0.00 0.00 0.00 0.00 0.00 0.00 0.00 0.00 0.00 0.00
0.00 0.00 0.00 0.00 0.00 0.00 0.00 0.00 0.00 0.00 0.00 0.00 0.00 0.00 0.00 0.00 0.00 0.00 0.00 0.00 0.00 0.00 0.00 0.00 0.00 0.00 0.00 0.00 0.00 0.00 0.00 0.00 0.00 0.00 0.00 0.00 0.00 0.00 0.00 0.00 0.00 0.00 0.00 0.00 0.00 0.00 0.00 0.00 0.00
0.00 0.00 0.00 0.00 0.00 0.00 0.00 0.00 0.00 0.00 0.00 0.00 0.00 0.00 0.00 0.00 0.00 0.00 0.00 0.00 0.00 0.00 0.00 0.00 0.00 0.00 0.00 0.00 0.00 0.00 0.00 0.00 0.00 0.00 0.00 0.00 0.00 0.00 0.00 0.00 0.00 0.00 0.00 0.00 0.00 0.00 0.00 0.00 0.00
0.00 0.00 0.00 0.00 0.00 0.00 0.00 0.00 0.00 0.00 0.00 0.00 0.00 0.00 0.00 0.00 0.00 0.00 0.00 0.00 0.00 0.00 0.00 0.00 0.00 0.00 0.00 0.00 0.00 0.00 0.00 0.00 0.00 0.00 0.00 0.00 0.00 0.00 0.00 0.00 0.00 0.00 0.00 0.00 0.00 0.00 0.00 0.00 0.00
0.00 0.00 0.00 0.00 0.00 0.00 0.00 0.00 0.00 0.00 0.00 0.00 0.00 0.00 0.00 0.00 0.00 0.00 0.00 0.00 0.00 0.00 0.00 0.00 0.00 0.00 0.00 0.00 0.00 0.00 0.00 0.00 0.00 0.00 0.00 0.00 0.00 0.00 0.00 0.00 0.00 0.00 0.00 0.00 0.00 0.00 0.00 0.00 0.00
0.00 0.00 0.00 0.00 0.00 0.00 0.00 0.00 0.00 0.00 0.00 0.00 0.00 0.00 0.00 0.00 0.00 0.00 0.00 0.00 0.00 0.00 0.00 0.00 0.00 0.00 0.00 0.00 0.00 0.00 0.00 0.00 0.00 0.00 0.00 0.00 0.00 0.00 0.00 0.00 0.00 0.00 0.00 0.00 0.00 0.00 0.00 0.00 0.00
0.00 0.00 0.00 0.00 0.00 0.00 0.00 0.00 0.00 0.00 0.00 0.00 0.00 0.00 0.00 0.00 0.00 0.00 0.00 0.00 0.00 0.00 0.00 0.00 0.00 0.00 0.00 0.00 0.00 0.00 0.00 0.00 0.00 0.00 0.00 0.00 0.00 0.00 0.00 0.00 0.00 0.00 0.00 0.00 0.00 0.00 0.00 0.00 0.00
0.00 0.00 0.00 0.00 0.00 0.00 0.00 0.00 0.00 0.00 0.00 0.00 0.00 0.00 0.00 0.00 0.00 0.00 0.00 0.00 0.00 0.00 0.00 0.00 0.00 0.00 0.00 0.00 0.00 0.00 0.00 0.00 0.00 0.00 0.00 0.00 0.00 0.00 0.00 0.00 0.00 0.00 0.00 0.00 0.00 0.00 0.00 0.00 0.00
0.00 0.00 0.00 0.00 0.00 0.00 0.00 0.00 0.00 0.00 0.00 0.00 0.00 0.00 0.00 0.00 0.00 0.00 0.00 0.00 0.00 0.00 0.00 0.00 0.00 0.00 0.00 0.00 0.00 0.00 0.00 0.00 0.00 0.00 0.00 0.00 0.00 0.00 0.00 0.00 0.00 0.00 0.00 0.00 0.00 0.00 0.00 0.00 0.00
0.00 0.00 0.00 0.00 0.00 0.00 0.00 0.00 0.00 0.00 0.00 0.00 0.00 0.00 0.00 0.00 0.00 0.00 0.00 0.00 0.00 0.00 0.00 0.00 0.00 0.00 0.00 0.00 0.00 0.00 0.00 0.00 0.00 0.00 0.00 0.00 0.00 0.00 0.00 0.00 0.00 0.00 0.00 0.00 0.00 0.00 0.00 0.00 0.00
0.00 0.00 0.00 0.00 0.00 0.00 0.00 0.00 0.00 0.00 0.00 0.00 0.00 0.00 0.00 0.00 0.00 0.00 0.00 0.00 0.00 0.00 0.00 0.00 0.00 0.00 0.00 0.00 0.00 0.00 0.00 0.00 0.00 0.00 0.00 0.00 0.00 0.00 0.00 0.00 0.00 0.00 0.00 0.00 0.00 0.00 0.00 0.00 0.00
0.00 0.00 0.00 0.00 0.00 0.00 0.00 0.00 0.00 0.00 0.00 0.00 0.00 0.00 0.00 0.00 0.00 0.00 0.00 0.00 0.00 0.00 0.00 0.00 0.00 0.00 0.00 0.00 0.00 0.00 0.00 0.00 0.00 0.00 0.00 0.00 0.00 0.00 0.00 0.00 0.00 0.00 0.00 0.00 0.00 0.00 0.00 0.00 0.00
0.00 0.00 0.00 0.00 0.00 0.00 0.00 0.00 0.00 0.00 0.00 0.00 0.00 0.00 0.00 0.00 0.00 0.00 0.00 0.00 0.00 0.00 0.00 0.00 0.00 0.00 0.00 0.00 0.00 0.00 0.00 0.00 0.00 0.00 0.00 0.00 0.00 0.00 0.00 0.00 0.00 0.00 0.00 0.00 0.00 0.00 0.00 0.00 0.00
0.00 0.00 0.00 0.00 0.00 0.00 0.00 0.00 0.00 0.00 0.00 0.00 0.00 0.00 0.00 0.00 0.00 0.00 0.00 0.00 0.00 0.00 0.00 0.00 0.00 0.00 0.00 0.00 0.00 0.00 0.00 0.00 0.00 0.00 0.00 0.00 0.00 0.00 0.00 0.00 0.00 0.00 0.00 0.00 0.00 0.00 0.00 0.00 0.00
0.00 0.00 0.00 0.00 0.00 0.00 0.00 0.00 0.00 0.00 0.00 0.00 0.00 0.00 0.00 0.00 0.00 0.00 0.00 0.00 0.00 0.00 0.00 0.00 0.00 0.00 0.00 0.00 0.00 0.00 0.00 0.00 0.00 0.00 0.00 0.00 0.00 0.00 0.00 0.00 0.00 0.00 0.00 0.00 0.00 0.00 0.00 0.00 0.00
0.00 0.00 0.00 0.00 0.00 0.00 0.00 0.00 0.00 0.00 0.00 0.00 0.01 0.01 0.00 0.00 0.00 0.00 0.00 0.00 0.00 0.00 0.00 0.00 0.00 0.00 0.00 0.00 0.00 0.00 0.00 0.00 0.00 0.00 0.00 0.00 0.00 0.00 0.00 0.00 0.00 0.00 0.00 0.00 0.00 0.00 0.00 0.00 0.00
MSLP
1010.03 1009.93 1010.18 1010.48 1011.99 1012.86 1012.24 1011.39 1010.63 1010.36 1010.42 1010.41 1010.52 1010.77 1011.57 1012.73 1013.34 1014.70 1014.80 1015.10 1015.29 1015.49 1015.48 1015.20 1014.89 1014.59 1014.31 1014.37 1014.35 1014.47 1014.77 1014.58 1014.41 1014.41 1014.61 1014.63 1014.72 1014.93 1014.91 1015.03 1015.10 1015.13 1015.20 1015.17 1015.16 1015.14 1015.16 1015.25 1015.29
1009.93 1010.03 1010.39 1011.34 1012.65 1013.20 1012.06 1010.77 1010.20 1010.21 1010.55 1010.58 1010.86 1011.45 1012.09 1013.33 1013.76 1014.40 1014.90 1015.41 1015.36 1015.39 1015.50 1015.41 1015.33 1015.11 1014.65 1013.83 1014.92 1014.82 1015.29 1015.23 1014.98 1014.82 1014.86 1014.97 1014.91 1015.00 1014.95 1015.09 1015.19 1015.26 1015.25 1015.20 1015.13 1015.05 1015.03 1015.10 1015.27
1009.73 1010.05 1011.15 1012.24 1013.14 1012.85 1011.70 1010.23 1009.97 1010.33 1010.44 1010.82 1011.79 1012.41 1012.97 1013.65 1014.03 1014.60 1015.26 1015.42 1015.42 1015.68 1015.63 1015.40 1015.43 1015.56 1014.77 1014.42 1015.36 1015.32 1015.92 1015.76 1015.47 1015.33 1015.31 1015.25 1015.19 1015.30 1015.31 1015.37 1015.27 1015.19 1015.14 1015.14 1015.06 1014.95 1015.01 1015.07 1015.13
1009.95 1010.90 1012.45 1012.52 1012.80 1011.56 1010.75 1009.84 1009.53 1010.14 1010.43 1011.05 1011.97 1013.10 1013.84 1013.94 1013.96 1014.48 1015.16 1015.33 1015.69 1015.65 1015.80 1015.59 1015.46 1015.38 1014.89 1015.03 1015.58 1015.77 1016.36 1016.04 1015.90 1015.82 1015.71 1015.59 1015.70 1015.69 1015.63 1015.65 1015.59 1015.46 1015.45 1015.36 1015.20 1015.08 1015.10 1015.05 1015.07
1010.67 1011.86 1013.07 1013.19 1012.43 1011.14 1009.97 1009.48 1009.42 1009.85 1010.50 1011.31 1011.93 1013.52 1014.18 1014.50 1014.32 1014.83 1015.38 1015.75 1015.98 1016.64 1016.45 1016.03 1015.92 1015.68 1015.38 1015.70 1016.21 1016.58 1016.63 1016.42 1016.37 1016.29 1016.05 1015.99 1016.17 1016.13 1016.13 1016.11 1016.04 1015.86 1015.74 1015.64 1015.57 1015.38 1015.22 1015.11 1014.95
1011.42 1012.58 1013.56 1013.35 1012.12 1010.89 1009.83 1009.24 1009.34 1009.85 1010.74 1011.51 1012.36 1013.51 1014.51 1014.75 1014.81 1015.23 1015.48 1015.98 1016.46 1016.71 1016.75 1016.46 1016.33 1016.11 1016.38 1016.64 1016.77 1016.83 1016.84 1016.82 1016.82 1016.73 1016.58 1016.56 1016.62 1016.51 1016.59 1016.71 1016.60 1016.41 1016.17 1016.06 1015.95 1015.75 1015.47 1015.32 1014.99
1011.48 1012.74 1013.17 1012.77 1011.88 1010.76 1009.61 1009.17 1009.53 1010.24 1011.08 1011.76 1012.36 1013.74 1014.80 1015.03 1015.28 1015.64 1016.05 1016.65 1016.89 1017.07 1017.26 1017.41 1017.38 1017.46 1017.29 1017.22 1017.23 1017.22 1017.06 1017.05 1017.03 1017.01 1017.08 1017.13 1017.13 1017.20 1017.18 1017.23 1017.03 1016.93 1016.83 1016.48 1016.50 1016.29 1016.03 1015.66 1015.21
1011.44 1012.31 1012.92 1012.21 1011.51 1010.45 1009.49 1009.42 1009.78 1010.33 1011.18 1011.77 1012.31 1013.34 1014.38 1014.76 1015.43 1016.20 1016.75 1017.18 1017.50 1017.63 1017.81 1018.00 1018.07 1017.98 1017.85 1017.70 1017.38 1017.42 1017.60 1017.73 1017.75 1017.67 1017.75 1017.85 1017.89 1017.81 1017.64 1017.64 1017.45 1017.32 1017.34 1017.15 1016.97 1016.81 1016.51 1016.24 1015.76
1011.18 1012.35 1012.68 1011.56 1010.72 1010.14 1009.61 1009.68 1010.05 1010.62 1011.27 1011.86 1012.60 1012.88 1013.12 1014.09 1015.32 1016.38 1016.94 1017.42 1017.83 1018.24 1018.52 1018.45 1018.32 1018.25 1017.99 1018.02 1018.09 1018.21 1018.14 1018.37 1018.40 1018.40 1018.40 1018.37 1018.53 1018.44 1018.30 1018.13 1018.27 1017.96 1017.73 1017.39 1017.06 1016.97 1016.85 1016.53 1016.18
1011.47 1012.17 1011.68 1010.79 1010.11 1009.89 1009.79 1009.77 1010.05 1010.83 1011.67 1012.28 1013.06 1013.59 1014.11 1014.97 1016.00 1016.53 1017.05 1017.64 1018.21 1018.70 1018.88 1018.80 1018.74 1018.58 1018.32 1018.44 1018.83 1018.91 1019.11 1019.26 1019.28 1019.33 1019.29 1019.00 1018.78 1018.89 1018.90 1018.53 1018.48 1018.45 1018.18 1017.95 1017.58 1017.00 1016.88 1016.78 1016.55
1011.38 1011.37 1011.07 1010.40 1010.08 1010.08 1009.97 1010.09 1010.26 1010.84 1011.68 1011.88 1012.71 1013.99 1014.57 1015.26 1016.04 1016.53 1017.40 1018.12 1018.60 1018.99 1019.07 1018.98 1018.69 1018.69 1018.86 1019.14 1019.31 1019.42 1019.53 1019.76 1020.01 1019.99 1019.84 1019.68 1019.56 1019.37 1019.21 1019.30 1018.89 1018.80 1018.56 1018.37 1018.09 1017.58 1017.10 1016.97 1016.79
1011.34 1010.78 1010.68 1010.35 1010.17 1010.32 1010.27 1010.32 1010.64 1010.97 1010.80 1011.22 1012.04 1013.61 1014.37 1015.52 1016.29 1016.88 1017.68 1018.56 1019.10 1019.49 1019.72 1019.66 1019.52 1019.56 1019.64 1019.62 1019.78 1020.00 1020.10 1020.40 1020.35 1020.23 1020.18 1020.10 1020.08 1020.11 1019.85 1019.49 1019.59 1019.37 1019.03 1018.74 1018.47 1018.04 1017.60 1017.04 1016.62
1011.36 1010.93 1010.82 1010.41 1010.26 1010.20 1010.14 1010.24 1010.46 1010.86 1011.20 1011.68 1012.70 1013.86 1014.67 1015.56 1016.61 1017.45 1018.16 1019.05 1019.61 1019.88 1020.03 1019.95 1019.94 1020.00 1020.07 1020.05 1020.33 1020.48 1020.64 1020.77 1020.93 1020.66 1020.73 1020.58 1020.48 1020.48 1020.20 1020.12 1019.90 1019.73 1019.59 1019.07 1018.59 1018.14 1017.76 1017.36 1016.78
1011.66 1011.37 1010.97 1010.60 1010.44 1010.08 1010.28 1010.18 1010.48 1011.08 1011.72 1012.50 1013.22 1014.16 1015.28 1016.09 1016.98 1018.05 1018.90 1019.65 1020.04 1020.28 1020.39 1020.40 1020.42 1020.43 1020.54 1020.74 1021.02 1021.29 1021.29 1021.36 1021.33 1021.35 1021.19 1020.94 1021.09 1020.93 1020.66 1020.40 1020.23 1019.94 1019.72 1019.36 1018.85 1018.37 1017.79 1017.45 1017.04
1011.84 1011.81 1011.21 1010.59 1010.36 1010.24 1010.36 1010.72 1010.94 1011.40 1012.32 1013.05 1013.94 1014.89 1015.80 1016.67 1017.36 1018.21 1019.09 1019.87 1020.25 1020.58 1020.76 1020.84 1020.81 1020.95 1021.03 1021.21 1021.38 1021.70 1021.83 1021.97 1021.99 1021.77 1021.80 1021.68 1021.48 1021.27 1021.06 1020.72 1020.34 1020.14 1019.76 1019.41 1018.97 1018.51 1018.01 1017.44 1016.95
1012.25 1012.23 1011.96 1011.04 1010.61 1010.42 1010.54 1011.18 1011.15 1011.73 1012.60 1013.91 1014.82 1015.81 1016.71 1017.65 1018.21 1018.76 1019.25 1019.98 1020.77 1020.95 1021.13 1021.05 1021.08 1021.32 1021.45 1021.65 1021.80 1021.94 1022.09 1022.20 1022.42 1022.42 1022.26 1021.93 1021.90 1021.77 1021.47 1021.24 1020.88 1020.53 1020.11 1019.61 1018.95 1018.56 1018.16 1017.61 1017.00
1013.24 1012.96 1012.42 1011.64 1011.16 1011.03 1011.07 1011.34 1011.39 1012.11 1013.14 1014.82 1015.71 1016.47 1017.43 1018.21 1018.97 1019.40 1019.83 1020.26 1020.75 1021.06 1021.34 1021.58 1021.65 1021.70 1021.80 1022.10 1022.28 1022.44 1022.44 1022.53 1022.67 1022.58 1022.46 1022.46 1022.13 1022.12 1021.95 1021.72 1021.43 1020.95 1020.44 1019.89 1019.43 1018.98 1018.39 1017.75 1016.98
1013.79 1013.59 1013.11 1012.60 1011.74 1011.28 1011.44 1011.63 1011.86 1012.45 1013.36 1014.63 1015.99 1017.05 1017.66 1018.40 1019.13 1019.75 1020.20 1020.76 1021.10 1021.40 1021.67 1021.92 1022.03 1022.03 1022.23 1022.49 1022.71 1022.82 1022.87 1023.01 1023.09 1023.13 1022.91 1022.69 1022.75 1022.46 1022.43 1022.09 1021.77 1021.32 1020.73 1020.20 1019.78 1019.36 1018.87 1018.01 1017.07
1013.85 1013.92 1013.80 1013.04 1012.35 1012.02 1011.75 1011.98 1012.12 1012.70 1013.62 1014.53 1015.57 1016.65 1017.74 1018.76 1019.49 1020.14 1020.83 1021.35 1021.77 1021.96 1022.07 1022.32 1022.50 1022.64 1022.49 1022.67 1023.02 1023.15 1023.36 1023.36 1023.33 1023.24 1023.47 1023.25 1023.26 1023.03 1022.79 1022.46 1021.97 1021.58 1021.05 1020.58 1020.29 1019.69 1018.97 1018.01 1017.42
1014.04 1014.03 1013.84 1013.07 1012.42 1012.63 1012.32 1012.50 1012.34 1012.61 1013.72 1014.63 1016.01 1017.05 1018.00 1019.20 1020.10 1020.86 1021.53 1021.88 1022.13 1022.41 1022.67 1022.69 1022.96 1022.98 1022.87 1022.98 1023.26 1023.47 1023.79 1023.86 1023.87 1023.81 1023.93 1023.87 1023.50 1023.42 1023.07 1022.73 1022.46 1021.96 1021.50 1021.00 1020.66 1020.16 1019.52 1018.56 1018.19
1013.71 1013.89 1013.64 1013.29 1013.03 1012.98 1013.04 1012.85 1012.80 1013.16 1013.89 1014.61 1015.59 1016.78 1018.10 1019.07 1020.20 1021.00 1021.68 1022.20 1022.50 1022.78 1022.80 1022.78 1023.12 1023.22 1023.26 1023.42 1023.42 1023.64 1023.70 1023.84 1024.30 1024.35 1024.28 1024.06 1024.05 1023.97 1023.68 1023.41 1022.94 1022.62 1021.93 1021.53 1021.34 1020.98 1020.11 1019.52 1018.74
1013.02 1012.60 1013.09 1013.48 1013.78 1014.18 1014.07 1013.85 1013.53 1013.42 1014.05 1015.17 1016.16 1016.83 1017.67 1018.68 1019.79 1020.60 1021.48 1022.17 1022.32 1022.82 1022.97 1022.95 1023.22 1023.23 1023.50 1023.56 1023.82 1024.15 1024.10 1024.44 1024.87 1025.00 1024.93 1024.70 1024.42 1024.36 1024.20 1024.03 1023.51 1023.43 1022.75 1022.22 1021.83 1021.62 1021.01 1020.21 1019.80
1012.56 1012.59 1012.92 1013.69 1014.45 1014.84 1014.94 1015.32 1013.79 1014.18 1014.82 1015.73 1016.73 1017.52 1018.31 1018.93 1019.44 1020.42 1021.21 1021.65 1022.49 1022.92 1023.22 1023.54 1023.53 1023.39 1023.84 1024.26 1024.24 1024.28 1024.47 1024.97 1025.18 1025.31 1025.27 1025.34 1025.11 1025.05 1024.67 1024.46 1024.18 1023.75 1023.47 1022.72 1022.32 1022.28 1021.41 1021.34 1020.55
1012.11 1013.09 1013.90 1014.62 1015.29 1015.56 1014.93 1015.35 1014.62 1014.76 1015.00 1015.71 1016.79 1017.74 1018.58 1019.14 1019.81 1020.52 1021.17 1021.82 1022.60 1023.17 1023.36 1023.96 1023.84 1024.19 1024.26 1024.85 1024.66 1024.75 1024.90 1025.48 1025.27 1025.55 1025.61 1025.83 1025.60 1025.70 1025.25 1024.93 1024.59 1024.24 1023.70 1023.31 1022.98 1022.85 1022.37 1021.89 1021.20
1012.56 1013.83 1014.95 1015.57 1016.18 1015.64 1014.98 1015.66 1014.45 1014.44 1014.85 1015.52 1016.39 1017.45 1018.24 1018.76 1019.38 1020.06 1020.77 1021.52 1022.34 1022.99 1023.72 1024.25 1024.43 1024.49 1024.76 1024.92 1025.07 1025.36 1025.59 1025.56 1025.81 1025.83 1026.11 1026.15 1026.15 1025.87 1025.71 1025.11 1024.89 1024.71 1024.50 1024.09 1023.45 1023.12 1022.70 1022.32 1021.67
1012.53 1013.59 1014.75 1015.20 1015.97 1015.82 1015.50 1015.17 1014.26 1014.58 1015.06 1015.49 1016.17 1017.10 1017.93 1018.15 1018.52 1019.21 1020.07 1021.13 1022.16 1022.93 1023.34 1024.19 1024.53 1024.88 1025.09 1025.26 1025.82 1025.68 1025.60 1025.84 1026.10 1026.25 1026.27 1026.49 1026.46 1026.52 1026.23 1025.84 1025.29 1025.07 1024.93 1024.46 1024.05 1023.82 1023.40 1022.95 1022.42
1012.48 1013.13 1013.40 1014.71 1016.09 1016.30 1015.60 1014.87 1014.32 1014.82 1015.31 1015.81 1016.47 1017.21 1017.94 1018.47 1019.19 1020.09 1020.97 1021.67 1022.17 1022.61 1023.12 1023.65 1024.40 1024.78 1024.98 1025.61 1025.75 1025.91 1026.05 1025.94 1026.18 1026.49 1026.61 1027.01 1026.97 1026.66 1026.48 1026.00 1025.55 1025.75 1025.55 1025.13 1024.70 1024.45 1024.13 1023.64 1022.85
1012.05 1012.86 1013.90 1015.18 1016.97 1016.88 1016.03 1015.48 1014.99 1014.92 1015.10 1015.82 1016.54 1017.02 1017.62 1018.46 1019.46 1020.24 1020.85 1021.54 1022.38 1022.89 1023.44 1024.14 1024.62 1024.88 1025.31 1025.64 1025.75 1025.99 1025.99 1026.20 1026.66 1027.02 1027.28 1027.42 1027.33 1026.95 1026.56 1026.24 1026.24 1026.30 1026.14 1025.82 1025.40 1025.06 1024.78 1024.27 1023.40
1013.04 1013.55 1014.42 1015.46 1016.67 1017.36 1017.04 1014.83 1014.05 1013.92 1014.10 1015.15 1015.55 1016.16 1017.09 1018.10 1019.13 1020.11 1020.95 1021.77 1022.49 1023.24 1023.77 1024.34 1024.73 1025.16 1025.42 1025.75 1025.99 1026.03 1026.16 1026.68 1027.23 1027.61 1027.71 1027.65 1027.36 1027.07 1026.93 1026.79 1026.88 1026.91 1026.77 1026.56 1026.15 1025.86 1025.49 1024.99 1024.26
1013.65 1014.11 1014.82 1016.03 1016.88 1017.29 1017.42 1013.86 1013.78 1013.82 1014.06 1014.58 1015.09 1015.73 1016.56 1017.62 1018.77 1019.91 1020.74 1021.64 1022.71 1023.46 1023.84 1024.09 1024.67 1025.20 1025.53 1025.78 1025.97 1026.23 1026.54 1027.07 1027.72 1027.95 1028.02 1027.80 1027.67 1027.53 1027.50 1027.42 1027.42 1027.50 1027.41 1027.35 1027.05 1026.79 1026.29 1025.81 1025.06
Thickness
5757 5758 5756 5749 5718 5701 5697 5714 5730 5729 5735 5740 5744 5742 5734 5721 5725 5711 5719 5718 5715 5714 5713 5715 5717 5721 5724 5723 5722 5721 5717 5718 5718 5718 5715 5714 5712 5709 5709 5706 5704 5703 5700 5700 5699 5699 5698 5696 5696
5754 5752 5747 5725 5695 5683 5692 5719 5730 5729 5731 5738 5737 5734 5726 5713 5720 5716 5714 5710 5710 5710 5710 5710 5711 5714 5718 5726 5714 5714 5709 5709 5711 5711 5709 5708 5708 5705 5703 5700 5698 5696 5695 5695 5695 5695 5695 5695 5692
5750 5746 5726 5698 5674 5680 5690 5721 5727 5728 5731 5732 5721 5721 5718 5712 5716 5712 5708 5707 5706 5704 5705 5707 5706 5706 5712 5717 5707 5705 5699 5700 5703 5703 5702 5702 5702 5699 5697 5694 5694 5692 5692 5691 5690 5691 5690 5689 5689
5739 5728 5709 5689 5690 5703 5706 5720 5727 5725 5728 5724 5718 5705 5707 5712 5712 5710 5706 5702 5700 5700 5699 5701 5702 5702 5706 5705 5698 5696 5691 5695 5695 5695 5696 5696 5693 5692 5691 5688 5686 5685 5684 5684 5684 5684 5684 5685 5685
5725 5707 5681 5679 5686 5699 5711 5719 5721 5720 5722 5718 5718 5698 5698 5701 5706 5703 5698 5695 5693 5689 5688 5692 5694 5695 5697 5693 5688 5683 5684 5686 5686 5687 5689 5688 5685 5684 5682 5679 5677 5678 5678 5678 5677 5678 5679 5679 5681
5705 5695 5669 5667 5682 5698 5707 5718 5722 5719 5715 5712 5707 5700 5694 5696 5697 5694 5692 5689 5684 5684 5683 5684 5683 5685 5682 5680 5678 5679 5679 5678 5678 5679 5680 5680 5678 5677 5675 5670 5668 5669 5670 5670 5671 5671 5672 5673 5676
5700 5681 5671 5676 5679 5691 5709 5719 5712 5709 5705 5704 5709 5692 5690 5691 5689 5687 5684 5678 5675 5674 5673 5673 5672 5670 5671 5671 5672 5672 5672 5672 5672 5671 5670 5669 5668 5666 5665 5663 5662 5661 5660 5663 5662 5663 5664 5666 5670
5697 5683 5677 5677 5677 5689 5707 5710 5711 5708 5700 5706 5704 5689 5686 5690 5684 5677 5672 5669 5666 5665 5665 5663 5663 5664 5665 5666 5666 5665 5664 5662 5661 5661 5659 5657 5655 5654 5655 5654 5654 5654 5653 5654 5655 5655 5656 5658 5662
5702 5673 5666 5684 5688 5697 5704 5703 5705 5704 5699 5698 5696 5699 5701 5694 5682 5671 5665 5662 5659 5656 5654 5655 5656 5656 5657 5656 5654 5654 5653 5650 5649 5648 5647 5647 5644 5644 5645 5645 5641 5643 5644 5647 5650 5651 5649 5651 5654
5688 5667 5677 5693 5701 5697 5700 5702 5702 5698 5691 5690 5686 5688 5687 5680 5671 5667 5663 5657 5651 5646 5644 5645 5645 5646 5647 5645 5642 5641 5638 5636 5635 5634 5634 5636 5637 5634 5633 5635 5635 5635 5636 5638 5640 5646 5646 5646 5647
5690 5678 5688 5696 5698 5694 5694 5693 5695 5689 5686 5689 5685 5677 5676 5672 5665 5663 5657 5649 5644 5640 5639 5640 5641 5640 5638 5635 5633 5631 5629 5626 5622 5621 5622 5623 5623 5624 5626 5625 5627 5627 5628 5630 5632 5636 5639 5640 5641
5686 5692 5692 5692 5691 5685 5685 5687 5687 5684 5696 5697 5690 5679 5675 5665 5660 5654 5646 5638 5633 5629 5627 5626 5627 5626 5625 5625 5622 5618 5616 5613 5613 5613 5611 5612 5611 5610 5612 5614 5613 5615 5617 5620 5622 5625 5628 5632 5636
5682 5687 5685 5689 5684 5684 5685 5684 5686 5687 5688 5685 5680 5674 5669 5663 5652 5644 5636 5628 5622 5619 5616 5616 5616 5615 5613 5613 5609 5607 5605 5603 5600 5600 5598 5599 5599 5598 5600 5600 5601 5602 5604 5608 5612 5616 5619 5622 5626
5676 5677 5675 5680 5682 5685 5680 5685 5689 5684 5676 5674 5671 5664 5656 5650 5642 5631 5624 5616 5612 5608 5607 5606 5605 5604 5600 5598 5594 5591 5589 5588 5587 5585 5586 5587 5585 5586 5587 5589 5589 5592 5592 5595 5599 5603 5608 5611 5614
5670 5666 5670 5679 5676 5679 5675 5674 5672 5672 5667 5665 5660 5655 5646 5639 5634 5626 5616 5608 5603 5599 5597 5593 5591 5590 5588 5586 5582 5578 5575 5572 5572 5572 5569 5569 5570 5571 5571 5573 5576 5577 5580 5583 5586 5590 5595 5600 5604
5657 5653 5646 5668 5669 5671 5671 5649 5667 5662 5658 5648 5643 5639 5633 5625 5618 5612 5606 5600 5592 5590 5587 5584 5581 5579 5576 5573 5569 5566 5563 5561 5557 5555 5554 5555 5553 5553 5555 5556 5558 5561 5563 5567 5572 5576 5579 5584 5589
5633 5634 5643 5650 5659 5658 5659 5651 5661 5652 5648 5632 5626 5617 5612 5608 5602 5597 5593 5589 5584 5581 5576 5570 5568 5567 5564 5559 5555 5552 5551 5548 5544 5542 5540 5538 5539 5536 5536 5537 5539 5543 5546 5550 5553 5556 5562 5567 5574
5625 5627 5630 5631 5646 5649 5646 5643 5646 5643 5639 5629 5611 5602 5600 5597 5591 5585 5581 5575 5572 5568 5564 5559 5556 5555 5550 5545 5542 5540 5538 5533 5529 5526 5525 5525 5521 5521 5519 5519 5520 5522 5526 5529 5532 5536 5540 5547 5557
5624 5618 5611 5619 5630 5635 5634 5634 5634 5631 5627 5615 5606 5598 5589 5583 5576 5572 5566 5561 5557 5552 5547 5542 5540 5536 5535 5532 5529 5525 5521 5518 5517 5514 5509 5507 5504 5503 5502 5502 5503 5503 5505 5509 5510 5515 5521 5527 5534
5609 5604 5601 5612 5622 5621 5620 5619 5623 5623 5614 5611 5593 5586 5577 5564 5559 5554 5547 5544 5540 5536 5532 5528 5523 5520 5522 5520 5515 5510 5505 5503 5501 5499 5494 5491 5491 5488 5486 5486 5485 5485 5486 5488 5489 5492 5497 5503 5507
5599 5593 5595 5599 5606 5607 5602 5604 5609 5611 5604 5596 5590 5578 5564 5555 5545 5540 5534 5528 5524 5520 5517 5513 5506 5508 5509 5506 5503 5499 5496 5493 5488 5484 5481 5479 5474 5471 5471 5469 5468 5467 5468 5469 5468 5469 5475 5477 5482
5585 5598 5594 5592 5583 5572 5587 5567 5593 5601 5597 5577 5566 5561 5553 5548 5540 5533 5525 5517 5515 5507 5502 5500 5500 5500 5497 5494 5489 5484 5482 5478 5471 5467 5465 5463 5461 5458 5456 5453 5452 5448 5449 5449 5449 5447 5451 5456 5458
5582 5592 5588 5582 5568 5562 5564 5555 5572 5580 5584 5571 5552 5545 5537 5533 5529 5522 5517 5511 5500 5494 5490 5489 5488 5489 5484 5477 5475 5473 5469 5464 5459 5455 5453 5448 5446 5442 5442 5439 5437 5436 5433 5434 5434 5431 5434 5433 5438
5585 5574 5560 5549 5544 5535 5554 5549 5556 5566 5572 5561 5546 5536 5527 5522 5517 5510 5503 5497 5489 5483 5482 5476 5475 5472 5470 5463 5462 5460 5457 5450 5449 5443 5440 5435 5433 5429 5428 5427 5426 5424 5423 5421 5420 5417 5418 5417 5420
5564 5548 5527 5525 5522 5535 5553 5539 5555 5564 5559 5553 5537 5526 5521 5519 5510 5503 5496 5490 5483 5478 5471 5465 5461 5460 5457 5454 5451 5445 5443 5440 5435 5432 5427 5423 5420 5418 5415 5416 5412 5409 5406 5405 5407 5406 5407 5406 5407
5549 5543 5526 5527 5525 5532 5541 5536 5544 5548 5541 5537 5528 5518 5514 5513 5512 5505 5497 5487 5476 5470 5465 5456 5452 5449 5446 5443 5436 5436 5434 5428 5424 5420 5417 5411 5407 5402 5401 5400 5400 5396 5393 5395 5395 5394 5393 5393 5393
5549 5537 5547 5531 5519 5513 5527 5536 5545 5535 5531 5523 5517 5512 5504 5501 5494 5488 5478 5473 5468 5462 5457 5451 5445 5442 5440 5433 5430 5426 5422 5421 5416 5409 5405 5397 5394 5392 5391 5390 5389 5384 5382 5382 5383 5382 5381 5382 5384
5548 5545 5524 5512 5502 5506 5515 5523 5521 5526 5524 5515 5502 5500 5499 5489 5482 5475 5470 5463 5458 5454 5448 5440 5436 5433 5428 5424 5421 5417 5415 5411 5403 5397 5391 5386 5383 5382 5381 5380 5376 5373 5371 5371 5371 5371 5370 5371 5375
5528 5523 5519 5514 5498 5488 5487 5515 5516 5527 5526 5508 5507 5502 5488 5485 5475 5468 5461 5454 5448 5439 5435 5430 5426 5422 5419 5415 5411 5408 5405 5398 5391 5385 5380 5377 5375 5373 5370 5367 5363 5360 5359 5358 5359 5358 5358 5359 5362
5525 5519 5515 5489 5501 5488 5452 5517 5520 5510 5509 5507 5502 5500 5488 5479 5470 5460 5456 5448 5437 5431 5426 5423 5418 5413 5407 5404 5402 5398 5393 5387 5380 5374 5371 5369 5366 5362 5358 5354 5351 5348 5346 5346 5346 5346 5346 5347 5350